Flag for Germany Weather past 2 weeks in Mainz, Rhineland-Palatinate, Germany

Now
56 °F

Sunny.


Feels Like: 56 °F
Forecast: 47 / 73 °F
Wind: No wind

Location: Wiesbaden Airport


UV Index: 3 (Moderate)

Visibility: N/A


Pressure: 30.11 "Hg

Humidity: 82%

Dew point: 50 °F

Location of MainzLocation

Historic Weather in Mainz

°F

Mainz temperature yesterday

Maximum temperature yesterday: 64 °F (at 5:58 PM)
Minimum temperature yesterday: 49 °F (at 5:58 AM)
Average temperature yesterday: 56 °F

Past Weeks' High & Low Weather Summary

 TemperatureHumidityPressure
High70 °F (Apr 20, 3:58 PM)100% (Apr 23, 4:58 AM)30.45 "Hg (Apr 23, 4:58 AM)
Low32 °F (Apr 16, 3:58 AM)31% (Apr 17, 5:58 PM)29.60 "Hg (Apr 21, 3:58 PM)
Average53 °F63%30.04 "Hg
* Reported Apr 8 8:58 AM — Apr 23 8:58 AM, Mainz, Weather by CustomWeather, © 2014

Note: Actual official high and low records may vary slightly from our data, if they occured in-between our weather recording intervals... More about our weather records

Advertising

Historic Weather Conditions — Data for Previous 24 hours

 ConditionsComfort  
Time TempWeatherWind HumidityBarometerVisibility
8:58 AM
Apr 23
56 °FSunny.No wind82%30.11 "HgN/A
7:58 AM52 °FSunny.No wind94%30.10 "HgN/A
6:58 AM46 °FClear.No wind93%30.11 "HgN/A
5:58 AM47 °FClear.No wind95%30.09 "HgN/A
4:58 AM45 °FClear.2 mph100%30.08 "HgN/A
3:58 AM46 °FClear.2 mph93%30.06 "HgN/A
2:58 AM46 °FClear.No wind93%30.06 "HgN/A
1:58 AM49 °FClear.No wind85%30.05 "HgN/A
12:58 AM49 °FClear.No wind91%30.05 "HgN/A
11:58 PM
Apr 22
50 °FClear.3 mph88%30.03 "HgN/A
10:58 PM51 °FClear.2 mph86%30.02 "HgN/A
9:58 PM55 °FClear.1 mph80%30.00 "HgN/A
8:58 PM59 °FSunny.3 mph68%29.97 "HgN/A
7:58 PM63 °FOvercast.2 mph59%29.96 "HgN/A
6:58 PM63 °FScattered clouds.2 mph59%29.93 "HgN/A
5:58 PM64 °FPartly sunny.1 mph54%29.93 "HgN/A
4:58 PM61 °FPartly sunny.5 mph69%29.93 "HgN/A
3:58 PM62 °FCloudy.3 mph61%29.92 "HgN/A
2:58 PM62 °FBroken clouds.5 mph64%29.91 "HgN/A
1:58 PM60 °FPartly sunny.7 mph72%29.91 "HgN/A
1:04 PM57 °FMore clouds than sun.8 mph77%29.91 "HgN/A
12:58 PM59 °FCloudy.6 mph72%29.91 "HgN/A
12:04 PM57 °FMostly cloudy.3 mph77%29.90 "HgN/A
11:58 AM57 °FOvercast.3 mph77%29.90 "HgN/A
10:58 AM55 °FMostly cloudy.5 mph81%29.88 "HgN/A
10:01 AM54 °FMore clouds than sun.5 mph82%29.86 "HgN/A
Weather by CustomWeather, © 2014

See weather overview